Regional Weather Roundup
Issued by NWS Cleveland, OH

Home | Current Version | Previous Version | Graphics & Text | Print | Product List | Glossary On
Versions: 1 2 3 4 5 6 7 8 9 10 11 12 13 14 15 16 17 18 19 20 21 22 23 24 25 26 27 28 29 30 31 32 33 34 35 36 37 38 39 40 41 42 43 44 45 46 47 48 49 50
000
ASUS41 KCLE 271910
RWRCLE
OHIO REGIONAL WEATHER ROUNDUP
NATIONAL WEATHER SERVICE WILMINGTON, OH
200 PM EST FRI FEB 27 2015

NOTE: "FAIR" INDICATES FEW OR NO CLOUDS BELOW 12,000 FEET WITH NO
SIGNIFICANT WEATHER AND/OR OBSTRUCTIONS TO VISIBILITY.

OHZ001>008-015>018-024>027-034-035-043-044-272000-
   NORTHWEST OHIO

CITY           SKY/WX    TMP DP  RH WIND       PRES   REMARKS
DEFIANCE       SUNNY     15  -3  44 SW7       30.59F WCI   5
FINDLAY        SUNNY     14   1  56 SW10      30.57F WCI   1
TOLEDO EXPRESS SUNNY     14  -3  47 W8        30.57F WCI   3
TOLEDO EXEC    SUNNY     14   0  53 SW12      30.58F WCI   0
LIMA           SUNNY     16  -1  47 W10       30.56S WCI   4
$$

OHZ009>014-019>023-028>033-038-089-272000-
   NORTHEAST OHIO

CITY           SKY/WX    TMP DP  RH WIND       PRES   REMARKS
CLE-HOPKINS    CLOUDY    14  -1  51 NW9       30.59S WCI   2
CLE-LAKEFRONT  SUNNY     13   2  61 W7        30.58S WCI   3
CUY CO. ARPT   MOSUNNY   16   1  53 W12       30.56S WCI   3
LORAIN-ELYRIA  CLOUDY    13   1  59 W12       30.57S WCI  -1
ASHTABULA      MOSUNNY   11  -3  53 NW8       30.54S WCI  -1
AKRON-CANTON   PTSUNNY   14  -3  47 W6G16     30.52S WCI   5
WOOSTER        SUNNY     12  -1  56 NW9       30.54S WCI   0
MANSFIELD      PTSUNNY   13  -3  49 W8        30.52S WCI   2
YOUNGSTOWN     PTSUNNY   14  -1  51 N8        30.51S WCI   3
$$

OHZ042-051>053-060>062-070>072-077>081-272000-
  SOUTHWEST OHIO

CITY           SKY/WX    TMP DP  RH WIND       PRES   REMARKS
CINC-COVINGTON MOSUNNY   20   1  43 NE6       30.57F WCI  12
CINC-LUNKEN    MIX PCPN  22   2  42 N10       30.62F WCI  11
HAMILTON       SUNNY     20   1  43 W6G16     30.61F WCI  12
DAYTON         MOSUNNY   19   3  49 NW7       30.57F WCI  10
WRIGHT-PAT AFB MOSUNNY   18   0  44 NW10      30.58F WCI   6
DAYTON GENERAL SUNNY     18  -1  43 NW9       30.56F WCI   7
WILMINGTON     PTSUNNY   16  -1  47 N7        30.55F WCI   6
$$

OHZ036-037-039>041-045>050-054>059-063>069-073>076-082>088-272000-
  CENTRAL AND SOUTHEAST OHIO

CITY           SKY/WX    TMP DP  RH WIND       PRES   REMARKS
COLUMBUS       CLOUDY    16   1  51 W9        30.57F WCI   4
OSU AIRPORT    PTSUNNY   16   2  54 SW9       30.56F WCI   4
BOLTON FIELD   PTSUNNY   18   3  53 W6        30.57F WCI   9
RICKENBACK AFB CLOUDY    17   4  55 W8        30.58S WCI   7
NEWARK         LGT SNOW  15   7  70 W6        30.56S WCI   6
MARION         SUNNY     14   1  56 W9        30.56S WCI   2
LANCASTER      CLOUDY    16   3  56 NW6       30.57F WCI   7
ZANESVILLE     CLOUDY    16  -1  47 W6        30.56S WCI   7
NEW PHILLY     SUNNY     16  -2  45 W7        30.57S WCI   6
$$



USA.gov is the U.S. government's official web portal to all federal, state and local government web resources and services.